Regional Weather Roundup
Issued by NWS

Home | Current Version | Previous Version | Graphics & Text | Print | Product List | Glossary On
Versions: 1 2 3 4 5 6 7 8 9 10 11 12 13 14 15 16 17 18 19 20 21 22 23 24 25 26 27 28 29 30 31 32 33 34 35 36 37 38 39 40 41 42 43 44 45 46 47 48 49 50
000
ASUS43 KBIS 211202
RWRND

NORTH DAKOTA REGIONAL WEATHER ROUNDUP
NATIONAL WEATHER SERVICE BISMARCK ND
600 AM CST TUE FEB 21 2017

NOTE: "FAIR" INDICATES FEW OR NO CLOUDS BELOW 12,000 FEET WITH NO
SIGNIFICANT WEATHER AND/OR OBSTRUCTIONS TO VISIBILITY.


NDZ001>003-009>011-017-211300-
NORTHWEST NORTH DAKOTA

CITY           SKY/WX    TMP DP  RH WIND       PRES   REMARKS
WILLISTON      FAIR      31  27  85 SW7       29.65S
6HR MIN TEMP:  29; 6HR MAX TEMP:  39;

MINOT          FAIR      32  28  85 CALM      29.63R
MINOT AFB      CLEAR     29  27  89 NW3       29.63R
$$

NDZ018>021-031>035-040>046-211300-
SOUTHWEST NORTH DAKOTA

CITY           SKY/WX    TMP DP  RH WIND       PRES   REMARKS
BISMARCK       FAIR      31  28  89 CALM      29.67R
6HR MIN TEMP:  30; 6HR MAX TEMP:  38;

DICKINSON      FAIR      39  28  64 W12       29.66R
GARRISON         N/A     31  27  85 CALM      29.64S
6HR MIN TEMP:  29; 6HR MAX TEMP:  38;

HETTINGER ARPT PTCLDY    37  30  75 NW8       29.72S
$$

NDZ004>008-012>016-024-026-027-054-211300-
NORTHEAST NORTH DAKOTA

CITY           SKY/WX    TMP DP  RH WIND       PRES   REMARKS
GRAND FORKS    CLOUDY    32  27  81 E5        29.73F
GRND FRKS AFB  CLOUDY    31  30  99 E3        29.73F
DEVILS LAKE    FAIR      28  28 100 NE5       29.68F
$$

NDZ022-023-025-028>030-036>039-047>053-211300-
SOUTHEAST NORTH DAKOTA

CITY           SKY/WX    TMP DP  RH WIND       PRES   REMARKS
FARGO          CLOUDY    34  32  92 SE7       29.75F
6HR MIN TEMP:  32; 6HR MAX TEMP:  36;

JAMESTOWN      FAIR      36  33  89 S15       29.65F
$$





USA.gov is the U.S. government's official web portal to all federal, state and local government web resources and services.